Wilbur Observed Data For Previous 48 Hours

Caption
Day and Hour Reservoir Elevation (behind dam)* Tailwater Elevation (below dam)* Average Hourly Discharge*
5/21/2017 2 AM EDT 1,647.83 1,585.32 1,587
5/21/2017 3 AM EDT 1,647.80 1,585.30 1,585
5/21/2017 4 AM EDT 1,647.77 1,585.31 1,586
5/21/2017 5 AM EDT 1,647.77 1,585.31 1,585
5/21/2017 6 AM EDT 1,647.74 1,585.32 1,587
5/21/2017 7 AM EDT 1,647.74 1,585.31 1,584
5/21/2017 8 AM EDT 1,647.76 1,585.29 1,588
5/21/2017 9 AM EDT 1,647.73 1,585.30 1,590
5/21/2017 10 AM EDT 1,647.70 1,585.31 1,588
5/21/2017 11 AM EDT 1,647.70 1,585.32 1,587
5/21/2017 12 PM EDT 1,647.67 1,585.32 1,588
5/21/2017 1 PM EDT 1,647.64 1,585.31 1,587
5/21/2017 2 PM EDT 1,647.62 1,585.30 1,587
5/21/2017 3 PM EDT 1,647.61 1,585.31 1,587
5/21/2017 4 PM EDT 1,647.58 1,585.32 1,588
5/21/2017 5 PM EDT 1,647.57 1,585.31 1,577
5/21/2017 6 PM EDT 1,647.57 1,585.28 1,577
5/21/2017 7 PM EDT 1,647.56 1,585.30 1,575
5/21/2017 8 PM EDT 1,647.55 1,585.31 1,572
5/21/2017 9 PM EDT 1,647.55 1,585.30 1,575
5/21/2017 10 PM EDT 1,647.55 1,585.29 1,573
5/21/2017 11 PM EDT 1,647.55 1,585.30 1,573
5/22/2017 12 AM EDT 1,647.54 1,585.29 1,574
5/22/2017 1 AM EDT 1,647.54 1,585.27 1,574
5/22/2017 2 AM EDT 1,647.54 1,585.15 1,573
5/22/2017 3 AM EDT 1,647.64 1,585.16 1,485
5/22/2017 4 AM EDT 1,647.76 1,585.15 1,488
5/22/2017 5 AM EDT 1,647.83 1,585.23 1,518
5/22/2017 6 AM EDT 1,647.88 1,585.20 1,530
5/22/2017 7 AM EDT 1,647.88 1,585.27 1,564
5/22/2017 8 AM EDT 1,647.87 1,585.29 1,572
5/22/2017 9 AM EDT 1,647.87 1,585.30 1,572
5/22/2017 10 AM EDT 1,647.86 1,585.30 1,575
5/22/2017 11 AM EDT 1,647.86 1,585.30 1,576
5/22/2017 12 PM EDT 1,647.84 1,585.33 1,573
5/22/2017 1 PM EDT 1,647.83 1,585.30 1,577
5/22/2017 2 PM EDT 1,647.83 1,585.28 1,577
5/22/2017 3 PM EDT 1,647.82 1,585.28 1,573
5/22/2017 4 PM EDT 1,647.82 1,585.30 1,575
5/22/2017 5 PM EDT 1,647.80 1,585.29 1,573
5/22/2017 6 PM EDT 1,647.79 1,585.30 1,574
5/22/2017 7 PM EDT 1,647.77 1,585.29 1,574
5/22/2017 8 PM EDT 1,647.76 1,585.32 1,577
5/22/2017 9 PM EDT 1,647.75 1,585.29 1,575
5/22/2017 10 PM EDT 1,647.73 1,585.30 1,576
5/22/2017 11 PM EDT 1,647.72 1,585.29 1,577
5/23/2017 12 AM EDT 1,647.70 1,585.30 1,574
5/23/2017 1 AM EDT 1,647.68 1,585.38 1,609
5/23/2017 2 AM EDT 1,647.62 1,585.39 1,611
5/23/2017 3 AM EDT 1,647.56 1,585.38 1,613
5/23/2017 4 AM EDT 1,647.52 1,585.38 1,613
5/23/2017 5 AM EDT 1,647.47 1,585.44 1,618
5/23/2017 6 AM EDT 1,647.42 1,585.34 1,616
5/23/2017 7 AM EDT 1,647.38 1,585.43 1,613
5/23/2017 8 AM EDT 1,647.30 1,585.44 1,621
5/23/2017 9 AM EDT 1,647.26 1,585.38 1,615
5/23/2017 10 AM EDT 1,647.20 1,585.42 1,611
5/23/2017 11 AM EDT 1,647.14 1,585.43 1,613
5/23/2017 12 PM EDT 1,647.09 1,585.35 1,620

Elevations are in feet above sea level. Discharges are in cubic feet per second and are reported at the end of the hour.